Location: Geyikbay?r?
(36.8756°N, 30.4583°E)
Time: 23:45:18
(UTC+00:00)

USA 215 - Pass Details

Date: 05 August 2024
Orbit: 1099 x 1108 km, 123.0° (Epoch: 16 September)

Event Time Altitude Azimuth Distance (km) Brightness Sun altitude
Exits shadow 22:31:11 33° 300° (WNW) 1,756 4.4 -36.1°
Drops below altitude 10° 22:34:36 10° 310° (NW) 2,960 5.8 -36.0°
Sets 22:37:07 0° 314° (NW) 3,921 6.6 -35.9°
